Content
SEND FEEDBACK

Daily
Averages
Monthly
Summary
United States of America

MILAN, MICHIGAN


Home > North America > United States > Michigan
Elevation: 660 feet     Latitude: 42 05N     Longitude: 083 35W

WEATHER
 
SELECT A DAY
Number of Records: 202,428;   Date Range: 1/1/95 - 7/7/14
 
SHARE

PRINT THIS DATA

[ ← Previous Day ]
WEATHER ALMANAC - MARCH 20, 2013
[ Next Day → ]
[ °C ]   °F
Weather ElementAverageHighLow
Temperature27.4 °F33.1 °F (2:53 pm)19.9 °F (11:53 pm)
Dewpoint12.9 °F16 °F (6:53 am)7 °F (10:53 pm)
Humidity54.9 %64 % (9:13 am)40 % (2:53 pm)
Barometer29.92 in29.96 in (8:53 pm)29.90 in (2:53 pm)
Wind Speed14 mph20.7 mph (2:53 pm)
Wind Gust26.5 mph (5:42 pm)
Weather ElementAverage
Visibility8.4 mi
Wind DirectionW (275.6 °)

Weather ElementTotal
Precipitation---
Heating Degree Days38.5 (Base 65)
Averaged from 34 records on March 20, 2013
WEATHER CONDITIONS BREAKOUT
WIND DIRECTION BREAKOUT
WEATHER BY HOUR - MARCH 20, 2013
[ °C ]   °F
Local TimeTemperatureDewpointHumidityBarometerVisibilityWind DirectionWind SpeedGust SpeedPrecipitationEventsConditions
1:53 AM28.0 °F14.0 °F56 %29.94 in10.0 miWest (270°)10.4 mphScattered Clouds
2:53 AM28.0 °F14.0 °F56 %29.94 in10.0 miWest (260°)10.4 mphClear
3:53 AM28.0 °F14.0 °F56 %29.94 in10.0 miWest (260°)10.4 mphOvercast
4:53 AM28.0 °F12.9 °F53 %29.92 in10.0 miWest (270°)9.2 mph18.4 mphOvercast
5:53 AM26.1 °F14.0 °F60 %29.92 in10.0 miWNW (290°)5.8 mphOvercast
6:53 AM27.0 °F16.0 °F63 %29.93 in10.0 miWest (280°)8.1 mphOvercast
7:53 AM27.0 °F16.0 °F63 %29.93 in10.0 miWNW (290°)10.4 mphOvercast
8:53 AM27.0 °F15.1 °F61 %29.94 in9.0 miWest (270°)15.0 mphOvercast
9:13 AM26.6 °F15.8 °F64 %29.92 in2.5 miWNW (290°)15.0 mphHaze
9:20 AM26.6 °F15.8 °F64 %29.92 in9.0 miWest (280°)15.0 mphMostly Cloudy
9:53 AM28.0 °F12.9 °F53 %29.94 in10.0 miWest (280°)12.7 mph21.9 mphOvercast
10:53 AM28.9 °F10.9 °F47 %29.93 in10.0 miWNW (290°)13.8 mphOvercast
11:53 AM30.0 °F14.0 °F51 %29.93 in8.0 miWest (270°)16.1 mphOvercast
12:01 PM28.4 °F15.8 °F59 %29.91 in2.5 miWest (280°)16.1 mphHaze
12:07 PM30.2 °F15.8 °F55 %29.91 in3.0 miWest (270°)13.8 mph23.0 mphHaze
12:53 PM30.9 °F12.9 °F47 %29.92 in10.0 miWest (270°)13.8 mphOvercast
1:53 PM32.0 °F12.0 °F44 %29.92 in10.0 miWest (270°)12.7 mphOvercast
2:53 PM33.1 °F10.9 °F40 %29.90 in10.0 miWest (260°)20.7 mph25.3 mphOvercast
3:53 PM30.0 °F12.0 °F47 %29.90 in10.0 miWest (270°)15.0 mph23.0 mphOvercast
4:53 PM28.0 °F12.0 °F51 %29.91 in9.0 miWest (280°)17.3 mphOvercast
5:15 PM28.4 °F12.2 °F51 %29.90 in6.0 miWest (270°)12.7 mphHaze
5:23 PM28.4 °F12.2 °F51 %29.90 in8.0 miWest (270°)18.4 mph24.2 mphOvercast
5:34 PM28.4 °F14.0 °F55 %29.90 in4.0 miWest (260°)17.3 mphHaze
5:42 PM28.4 °F15.8 °F59 %29.90 in9.0 miWest (260°)17.3 mph26.5 mphOvercast
5:53 PM30.0 °F14.0 °F51 %29.92 in10.0 miWSW (250°)18.4 mphOvercast
6:08 PM26.6 °F15.8 °F64 %29.91 in2.5 miWNW (300°)18.4 mph25.3 mphHaze
6:27 PM26.6 °F14.0 °F59 %29.91 in7.0 miWest (280°)18.4 mph25.3 mphOvercast
6:45 PM26.6 °F10.4 °F51 %29.91 in9.0 miWest (280°)16.1 mphOvercast
6:53 PM26.1 °F10.0 °F51 %29.94 in10.0 miWest (270°)16.1 mphOvercast
7:53 PM25.0 °F12.0 °F58 %29.95 in8.0 miWNW (290°)10.4 mph20.7 mphOvercast
8:53 PM23.0 °F8.1 °F53 %29.96 in10.0 miWest (270°)11.5 mphMostly Cloudy
9:53 PM21.9 °F8.1 °F55 %29.96 in10.0 miWNW (290°)15.0 mphPartly Cloudy
10:53 PM21.0 °F7.0 °F55 %29.96 in10.0 miWNW (290°)12.7 mphClear
11:53 PM19.9 °F9.0 °F62 %29.95 in10.0 miWNW (290°)10.4 mphClear
Hourly data recorded from KYIP, located miles away from Milan, Michigan







STORIES FROM OUR PARTNERS